OpenBCM V1.08-3-g9b42 (Linux)

Packet Radio Mailbox

OK0NBR

[Sao_Jose_dos_Campo]

 Login: GUEST





  
I0OJJ  > KEPS     07.11.25 22:03l 311 Lines 14707 Bytes #249 (0) @ AMSAT
BID : ORB25312.1
Read: GUEST
Subj: 2Line Orbital Elements 25312.AMSAT
Path: OK0NBR<IW0QNL<HB9ON<DK0WUE<ZL2BAU<K7EK<VE3CGR<CX2SA<EA2RCF<I0OJJ
Sent: 251108/0021z @:I0OJJ.ITA.EU [Rome] obcm1.08-11-2-gbfe9
From: I0OJJ @ I0OJJ.ITA.EU (Gustavo)
To:   KEPS @ AMSAT
X-Info: This message was generated automatically


QST de W1STR

AMSAT Orbital Elements for Amateur Satellites in TLE Format
>From Orbital Analysis Office
New England Sci-Tech STEM Education Center
Natick MA November 08, 2025
To all radio amateurs


These element sets describe the orbits of various satellites 
in use by the amateur radio community. For details see:
www.amsat.org/keplerian-elements-formats/

A daily update of element sets is available at:
www.amsat.org/tle/daily-bulletin.txt
or without bulletin text:
www.amsat.org/tle/dailytle.txt


AO-07
1 07530U 74089B   25311.86620389 -.00000054  00000-0 -46207-4 0  9991
2 07530 101.9977 317.7649 0012122 192.6028 241.3948 12.53693038332788
UO-11
1 14781U 84021B   25311.40366770  .00002529  00000-0  26819-3 0  9998
2 14781  97.7761 274.9958 0007223 185.7068 174.4069 14.89958281224096
AO-27
1 22825U 93061C   25311.61535527  .00000219  00000-0  10061-3 0  9997
2 22825  98.7194  13.7913 0008956  36.9178 323.2619 14.30856621675319
FO-29
1 24278U 96046B   25311.57990281  .00000009  00000-0  48290-4 0  9997
2 24278  98.5493 185.4280 0349207 311.3958  45.7643 13.53259174443196
GO-32
1 25397U 98043D   25311.44332823  .00000138  00000-0  79800-4 0  9991
2 25397  98.9887 293.8458 0002137 114.2958 245.8443 14.24361537419762
ISS
1 25544U 98067A   25311.45303466  .00013372  00000-0  24333-3 0  9997
2 25544  51.6332 317.1578 0005147  27.3119 332.8140 15.49822938537382
NO-44
1 26931U 01043C   25311.81068340  .00000357  00000-0  16448-3 0  9992
2 26931  67.0495  96.8033 0007201 271.8764  88.1513 14.31823165258755
SO-50
1 27607U 02058C   25311.79019419  .00002822  00000-0  35668-3 0  9994
2 27607  64.5524  93.5989 0070090 303.0432  56.3954 14.82185553231633
CO-55
1 27844U 03031E   25311.46164274  .00000521  00000-0  24523-3 0  9995
2 27844  98.6778 317.8182 0010681 107.6785 252.5561 14.24132834160119
CO-57
1 27848U 03031J   25311.48138785  .00000432  00000-0  20910-3 0  9996
2 27848  98.6805 317.7275 0010392 123.6131 236.6041 14.23447985159836
RS-22
1 27939U 03042A   25311.87413311  .00002317  00000-0  37042-3 0  9991
2 27939  98.3369 125.1511 0010297 248.7116 247.9424 14.72813815182962
CO-58
1 28895U 05043F   25311.83724981  .00003430  00000-0  55790-3 0  9997
2 28895  98.2709  98.3350 0014309 183.7095 176.4007 14.71677895 69181
CO-65
1 32785U 08021C   25311.90597719  .00009537  00000-0  65058-3 0  9996
2 32785  97.8051 284.5246 0011583  65.1734 295.0696 15.06386069951840
CO-66
1 32791U 08021J   25311.85150365  .00026550  00000-0  11107-2 0  9998
2 32791  97.7428 295.8448 0005013  38.9133 321.2463 15.23548127953485
RS-30
1 32953U 08025A   25311.86336248  .00000022  00000-0  83292-4 0  9991
2 32953  82.4994 133.1170 0019934  75.4206 284.9083 12.43170302792191
SRMSAT
1 37841U 11058D   25311.69226734  .00000537  00000-0  14767-3 0  9992
2 37841  19.9730 320.0678 0011542 287.5322 230.9057 14.11492965726487
ZACUBE-1
1 39417U 13066B   25311.87592833  .00009016  00000-0  74498-3 0  9998
2 39417  97.7988 268.3930 0041267 266.1852  93.4652 14.98517492647551
Delfi-N3xt
1 39428U 13066N   25311.31731728  .00012532  00000-0  11978-2 0  9997
2 39428  97.8317 227.4549 0078772 222.4429 137.0681 14.91042645641511
GOMX-1
1 39430U 13066Q   25311.81027723  .00003399  00000-0  52263-3 0  9992
2 39430  97.6622 161.1204 0132281  68.2597 293.2629 14.68348639637418
LO-74
1 39440U 13066AA  25311.79090628  .00009152  00000-0  88917-3 0  9992
2 39440  97.8659 255.5321 0061819  41.9436 318.6493 14.91379597643968
AO-73
1 39444U 13066AE  25311.62907013  .00013498  00000-0  93714-3 0  9992
2 39444  97.8029 274.5085 0037276 234.4161 125.3589 15.05118486646286
DTUSAT-2
1 40030U 14033W   25310.91674094  .00009670  00000-0  58499-3 0  9999
2 40030  98.0726 290.3961 0006532 275.2588  84.7895 15.10853555619076
EO-80
1 40032U 14033Y   25311.85616735  .00012042  00000-0  72528-3 0  9999
2 40032  98.0612 290.8298 0006963 193.8073 166.2966 15.10946031619192
LILACSAT-2
1 40908U 15049K   25311.80408535  .00023417  00000-0  52744-3 0  9997
2 40908  97.4950 336.1410 0007693 350.2794   9.8303 15.43252955561512
IO-86
1 40931U 15052B   25151.18580175  .00001241  00000-0  78118-4 0  9996
2 40931   6.0006  24.0987 0012733 338.8432  21.1169 14.78805930523159
Horyu-4
1 41340U 16012D   25311.74942116  .00055299  00000-0  10663-2 0  9996
2 41340  30.9931 189.4856 0004563 240.2654 119.7540 15.46549656536126
Lapan A3
1 41603U 16040E   25311.86638814  .00006418  00000-0  21528-3 0  9991
2 41603  97.1425 310.7017 0012795  88.9446 271.3262 15.31141856520922
CAS-2T
1 41847U 16066G   25311.63317510  .00002229  00000-0  32068-3 0  9998
2 41847  98.4073  24.7169 0345408  81.3613 282.6542 14.44004506472811
TechnoSat
1 42829U 17042E   25311.44833733  .00006271  00000-0  46821-3 0  9996
2 42829  97.4051 113.1913 0020234 127.3539 232.9533 15.02999647453374
AO-91
1 43017U 17073E   25311.61673303  .00015763  00000-0  75583-3 0  9997
2 43017  97.4980 178.6315 0164744  11.6070 348.8883 15.07716546431941
S-Net D
1 43186U 18014G   25311.65989785  .00009696  00000-0  54128-3 0  9998
2 43186  97.5482 213.0476 0010775  68.2025 292.0352 15.13695384425217
S-Net B
1 43187U 18014H   25311.79961443  .00010065  00000-0  56197-3 0  9995
2 43187  97.5488 213.1645 0011309  63.8768 296.3625 15.13674554425230
S-Net A
1 43188U 18014J   25311.46143237  .00009726  00000-0  54286-3 0  9992
2 43188  97.5498 213.0007 0011281  65.4150 294.8256 15.13696638425189
S-Net C
1 43189U 18014K   25311.67024833  .00010219  00000-0  57043-3 0  9999
2 43189  97.5515 213.2469 0012568  57.9639 302.2811 15.13665208423763
Ten-Koh
1 43677U 18084G   25311.46169971  .00004814  00000-0  37738-3 0  9991
2 43677  98.0674 129.6800 0009338 126.7640 233.4442 15.01449727382878
PO-101
1 43678U 18084H   25311.81456050  .00003548  00000-0  29652-3 0  9997
2 43678  98.1079 133.8740 0007905 132.4602 227.7289 14.99185583383036
QO-100
1 43700U 18090A   25311.80044675  .00000149  00000-0  00000+0 0  9991
2 43700   0.0051 300.2066 0002737 326.8262  94.1795  1.00272841 25453
MinXSS-2
1 43758U 18099A   25311.84080966  .00033944  00000-0  10930-2 0  9995
2 43758  97.4845  18.7882 0009639 347.9445  12.1564 15.32088506380078
AO-95
1 43770U 18099N   25311.60295250  .00017555  00000-0  79993-3 0  9992
2 43770  97.4723   8.1681 0010938  52.6622 307.5608 15.20672862379471
SNUSat 2
1 43782U 18099AA  25311.58595789  .00013191  00000-0  66301-3 0  9993
2 43782  97.4406   3.6090 0011086 358.3249   1.7945 15.17330722379370
SnugLite
1 43784U 18099AC  25311.59880572  .00017886  00000-0  80736-3 0  9996
2 43784  97.4215   3.5511 0003174  18.5033 341.6318 15.21040719379562
ITASat 1
1 43786U 18099AE  25311.57593738  .00012022  00000-0  64019-3 0  9994
2 43786  97.4371   2.6311 0014694  48.7562 311.4934 15.15271617379303
EAGLET 1
1 43790U 18099AJ  25311.60330322  .00007827  00000-0  47669-3 0  9990
2 43790  97.4575   2.0472 0012568  37.7821 322.4289 15.10594494378850
ESEO
1 43792U 18099AL  25311.53885014  .00004019  00000-0  30036-3 0  9997
2 43792  97.4281 353.1533 0012479  13.6626 346.4936 15.03274224378494
JO-97
1 43803U 18099AX  25311.60418358  .00023067  00000-0  91830-3 0  9994
2 43803  97.4473   9.5666 0006191 347.1798  12.9282 15.25237297379750
Suomi 100
1 43804U 18099AY  25311.62873138  .00018851  00000-0  82577-3 0  9991
2 43804  97.4534   8.3870 0010851 348.4636  11.6349 15.22009326379641
ISAT
1 43879U 18111D   25311.52074132  .00049839  00000-0  13137-2 0  9999
2 43879  97.5892 229.9091 0009540  41.6813 318.5156 15.38303143376822
UWE-4
1 43880U 18111E   25311.71710789  .00034109  00000-0  10992-2 0  9997
2 43880  97.5833 227.3382 0012763  46.7792 313.4513 15.32029926376714
Sparrow
1 43881U 18111F   25311.74775119  .00053311  00000-0  13186-2 0  9993
2 43881  97.6072 233.6976 0009215  68.4969 291.7258 15.40238646376977
Prox-1
1 44339U 19036A   25311.62058096  .00020104  00000-0  23313-2 0  9991
2 44339  23.9946 147.1261 0007404   1.2755 358.7761 14.83855703340441
Taurus 1
1 44530U 19059C   25311.89057587  .00013090  00000-0  22735-2 0  9995
2 44530  98.6225  98.8497 0008793 282.1543  77.8675 14.68287427326120
Duchifat 3
1 44854U 19089C   25311.82399392  .00305527  00000-0  19006-2 0  9999
2 44854  36.9310 100.0503 0008621  22.6306 337.4839 15.75093588326586
TO-108
1 44881U 19093C   25311.82148282  .00001704  00000-0  20086-3 0  9995
2 44881  97.7796  24.2296 0015131  94.7057 265.5887 14.85978803318534
FloripaSat 1
1 44885U 19093G   25311.84363160  .00011293  00000-0  89758-3 0  9990
2 44885  97.8072  39.8848 0012000  80.4075 279.8504 15.00557315319416
RS-44
1 44909U 19096E   25311.83287483  .00000011  00000-0  87888-5 0  9992
2 44909  82.5180 126.8072 0216644 302.0697  55.9529 12.79745290274035
SALSAT
1 46495U 20068K   25311.84139097  .00014509  00000-0  57543-3 0  9993
2 46495  97.8767 297.2582 0011031   8.4009 351.7410 15.25439945281566
CSS (TIANHE-1)
1 48274U 21035A   25311.80807516  .00039652  00000-0  46682-3 0  9997
2 48274  41.4662 228.8136 0005483 340.8611  19.2021 15.60624711258578
TUBIN
1 48900U 21059X   25311.81320618  .00246040  00000-0  10419-2 0  9992
2 48900  97.6694 135.4288 0001687  10.0211 350.1092 15.84720665243757
CUTE
1 49263U 21088D   25311.68784272  .00031863  00000-0  46710-3 0  9991
2 49263  97.4387  33.0424 0006195  51.0756 309.1050 15.55474003227840
TeikyoSat 4
1 49396U 21102B   25311.84419861  .00004259  00000-0  27736-3 0  9998
2 49396  97.3941 344.7510 0011757 341.9277  18.1532 15.08398660219349
Z-Sat
1 49399U 21102E   25311.86484765  .00008374  00000-0  43869-3 0  9995
2 49399  97.3624 348.8596 0015996 301.9913  57.9765 15.15935075219884
